SO-67 - Orbit

View from above orbital plane
View from above orbital plane
View from above satellite
View from above satellite

Ground track
Ground track

The orbit data is extracted from the following two-line orbital elements,

1 35870U 09049F   13138.42435339  .00006672  00000-0  25548-3 0   689
2 35870 097.1935 168.2363 0003759 076.9279 034.8212 15.26855083203718
Epoch (UTC): 18 May 2013 10:11:04
Eccentricity: 0.0003759
inclination: 97.1935°
perigee height: 482 km
apogee height: 488 km
right ascension of ascending node: 168.2363°
argument of perigee: 76.9279°
revolutions per day: 15.26855083
mean anomaly at epoch: 34.8212°
orbit number at epoch: 20371

The dashed part of the orbit path shows where the satellite is in the earth's shadow,  

Developed and maintained by Chris Peat, Heavens-Above GmbH. Please read the updated FAQ before sending e-mail. Imprint. DLR